Location: Kuppenheim
(48.8299°N, 8.2568°E)
Time: 02:25:08
(UTC+00:00)

Cosmos 990 Rocket - Visible Passes

Search period start: 17 October 2021 00:00
Search period end: 27 October 2021 00:00
Orbit: 746 x 769 km, 74.0° (Epoch: 16 October)

Date Brightness Start Highest point End Pass type
(mag) Time Alt. Az. Time Alt. Az. Time Alt. Az.
17 Oct 6.7 18:05:28 10° WNW 18:07:48 13° NW 18:10:07 10° NNW visible
18 Oct 6.5 17:23:26 10° W 17:27:07 19° NW 17:30:49 10° N visible
20 Oct 6.8 17:48:35 10° NW 17:49:30 10° NW 17:50:25 10° NNW visible
21 Oct 6.5 17:05:41 10° W 17:08:45 15° NW 17:11:51 10° N visible
24 Oct 6.6 16:48:11 10° WNW 16:50:26 13° NW 16:52:43 10° NNW visible
